Location: Erfurt
(50.9688°N, 11.0193°E)
Time: 04:44:17
(UTC+01:00)

ISS - Visible Passes

Search period start: 23 November 2017 00:00
Search period end: 03 December 2017 00:00
Orbit: 402 x 407 km, 51.6° (Epoch: 23 November)

Date Brightness Start Highest point End Pass type
(mag) Time Alt. Az. Time Alt. Az. Time Alt. Az.
28 Nov -1.6 18:16:37 10° S 18:17:57 15° SSE 18:17:57 15° SSE visible
29 Nov -1.3 17:26:11 10° SE 17:26:41 10° SE 17:27:12 10° SE visible
29 Nov -1.4 18:59:22 10° SW 19:00:32 19° SW 19:00:32 19° SW visible
30 Nov -2.6 18:07:22 10° SSW 18:10:15 29° SSE 18:10:23 29° SE visible
01 Dec -1.9 17:15:38 10° S 17:18:04 19° SE 17:20:10 12° E visible
01 Dec -2.1 18:50:52 10° WSW 18:52:49 33° SW 18:52:49 33° SW visible
02 Dec -3.4 17:58:36 10° SW 18:01:48 49° SSE 18:02:33 39° ESE visible
02 Dec -0.3 19:34:55 10° W 19:35:12 12° W 19:35:12 12° W visible
